Погода в Еленя-Гура

Польша     50°52′01″N   15°40′47″E
темп.,
°C
ветер,
м/с
пор.,
м/с
влажн.,
%
обл.,
%
осадки,
мм/ч
давл.,
гПа
погр.,
м
2 марта, вт
вт201:00+2ююз01700 0.0 103622
04:00+1юз01710 0.0 103522
07:00+2ююз11640 0.0 103522
10:00+9юз12520 0.0 1035142
13:00+12зюз01470 0.0 1035451
16:00+10св11600 0.0 1034214
19:00+4ю01780 0.0 103422
22:00+4юз12720 0.0 103422
3 марта, ср
ср301:00+3юз12620 0.0 103422
04:00+3юз22500 0.0 103222
07:00+2юз22540 0.0 103222
10:00+7юз225325 0.0 1030176
13:00+9юз225152 0.0 1029434
16:00+8зюз23613 0.0 1026361
19:00+3зюз22751 0.0 102535
22:00+4зюз237334 0.0 102338
4 марта, чт
чт401:00+3зюз238054 0.0 102238
04:00+2зюз238997 0.0 102040
07:00+2зюз239299 0.0 101942
10:00+7зюз367220 0.0 1017521
13:00+9зюз366344 0.0 10151011
16:00+7зюз238298 0.5 1013559
19:00+3ссз349799 8.6 1013323
22:00+1с3697100 0.6 1015364
5 марта, пт
пт501:000с2595100 1.1 1016397
04:00−2ссв3596100 0.9 1017372
07:00−4ссв359395 2.4 1020520
10:00−3ссв468379 0.8 1022872
13:00−2с356977 0.8 10231086
16:00−3с367260 0.1 10241176
19:00−5сз388155 0.3 1026405
22:00−5ссз278442 0.1 1029654
6 марта, сб
сб601:00−7ссз258444 0.1 1031408
04:00−7ссз249016 0.0 1031243
07:00−7сз138828 0.0 1033173
10:00−3сз22510 0.0 1034871
13:00−1сз23480 0.0 10331167
16:00−1зсз23520 0.0 1031973
19:00−4зюз12670 0.0 103124
22:00−5зюз22660 0.0 103143